Regional Weather Roundup
Issued by NWS

Home | Current Version | Previous Version | Text Only | Print | Product List | Glossary On
Versions: 1 2 3 4 5 6 7 8 9 10 11 12 13 14 15 16 17 18 19 20 21 22 23 24 25 26 27 28 29 30 31 32 33 34 35 36 37 38 39 40 41 42 43 44 45 46 47 48 49 50
000
ASCA44 KEWX 292120
RWRMX

LATIN AMERICA AND CARIBBEAN REGIONAL WEATHER ROUNDUP
NATIONAL WEATHER SERVICE AUSTIN/SAN ANTONIO TX
400 PM CDT SAT AUG 29 2015

NOTE: "FAIR" INDICATED FEW OR NO CLOUDS BELOW 12,000 FEET WITH NO
SIGNIFICANT WEATHER AND/OR OBSTRUCTIONS TO VISIBILITY.

BAJA CALIFORNIA

CITY           SKY/WX    TMP DP  RH WIND       PRES   REMARKS
LORETO         MOSUNNY   97  81  59 CALM      29.78F HX 118
LA PAZ         MOSUNNY   99  63  30 N12       29.81F HX 100
MEXICALI       SUNNY    108  50  14 CALM      29.76F HX 104
S.J. DEL CABO  MOSUNNY   95  70  43 SE12      29.83  HX 101
TIJUANA        SUNNY     90  52  27 NW14      29.91

NORTHWESTERN MEXICO

CITY           SKY/WX    TMP DP  RH WIND       PRES   REMARKS
CULIACAN       PTSUNNY   95  79  59 CALM      29.84F HX 112
DURANGO        SUNNY     84  28  13 N7        30.20F
GUAYMAS        MOSUNNY   99  79  53 SW14      29.75F HX 117
HERMOSILLO     MOSUNNY  106  64  26 CALM      29.83F HX 110
CD. JUAREZ     MOSUNNY   90  61  37 E8        30.08R
LOS MOCHIS     MOSUNNY   97  70  41 SW8       29.81F HX 103
OBREGON        MOSUNNY  102  70  35 W5        29.77F HX 110

NORTHEASTERN MEXICO

CITY           SKY/WX    TMP DP  RH WIND       PRES   REMARKS
CHIHUAHUA      PTSUNNY   88  46  23 N12       30.12F
MATAMOROS      PTSUNNY   91  73  55 E12       29.99F HX 100
MONCLOVA         N/A    N/A N/A N/A MISG        N/A
MONTERREY      MOSUNNY   91  54  27 NE7       29.90F
NUEVO LAREDO   SUNNY    100  61  27 CALM      29.94F HX 101
PIEDRAS NEGRAS SUNNY     97  66  36 SE6       29.99F HX 100
REYNOSA        MOSUNNY   90  59  35 E2        29.93F
SALTILLO       SUNNY     86  57  37 N14       30.17F
TORREON        SUNNY     91  34  13 SE5       30.08
CD. VICTORIA   MOSUNNY   97  50  20 NW2       29.93F HX  94

WESTERN MEXICO

CITY           SKY/WX    TMP DP  RH WIND       PRES   REMARKS
AGUASCALIENTES SUNNY     81  34  18 NE5       30.21F
COLIMA         PTSUNNY   86  73  66 SW12      29.93F HX  93
DEL BAJIO      MOSUNNY   82  41  23 CALM      30.24F
GUADALAJARA    SUNNY     81  43  26 S3        30.14F
MANZANILLO     SUNNY     90  77  66 SW9       29.78  HX 102
MAZATLAN       MOSUNNY   91  79  66 SW13      29.80F HX 107
P. VALLARTA    PTSUNNY   90  79  70 SW12      29.80F HX 105
URUAPAN        PTSUNNY   73  63  68 S9        30.14F
ZACATECAS      MOSUNNY   79  39  24 NE17      30.25

CENTRAL MEXICO

CITY           SKY/WX    TMP DP  RH WIND       PRES   REMARKS
CUERNAVACA     PTSUNNY   82  61  47 CALM      30.05F
MEXICO CITY    CLOUDY    73  50  43 NE10      30.26F
MORELIA        PTSUNNY   77  54  44 N7        30.19F
POZA RICA      PTSUNNY   88  77  70 SE7       29.95F HX 100
PUEBLA         CLOUDY    73  50  43 S8        30.27F
QUERETARO      PTSUNNY   79  54  41 NE6       30.26F
S. LUIS POTOSI   N/A    N/A N/A N/A MISG        N/A
TAMPICO        MOSUNNY   90  70  51 E14       29.94F HX  95
TOLUCA         PTSUNNY   68  50  52 E6        30.33

SOUTHERN MEXICO

CITY           SKY/WX    TMP DP  RH WIND       PRES   REMARKS
ACAPULCO       MOSUNNY   88  77  70 SW12      29.80F HX 100
B. DE HUATULCO MOSUNNY   90  75  62 W8        29.87F HX 100
OAXACA         CLOUDY    79  54  41 N5        30.11F
P. ESCONDIDO   PTSUNNY   88  73  62 S8        29.91S HX  96
VERACRUZ       PTSUNNY   86  77  74 NE14      29.92F HX  97
ZIHUATANEJO    MOSUNNY   93  77  59 SW12      29.80F HX 107

YUCATAN PENINSULA

CITY           SKY/WX    TMP DP  RH WIND       PRES   REMARKS
CAMPECHE       PTSUNNY   86  79  79 NW12      29.87F HX  99
CANCUN         MOSUNNY   90  79  70 E9        29.90F HX 105
CHETUMAL       PTSUNNY   91  77  62 SE6       29.87F HX 105
CD. DEL CARMEN MOSUNNY   86  77  74 N12       29.89F HX  97
COZUMEL        MOSUNNY   86  79  79 NE10      29.90F HX  99
MERIDA         PTSUNNY   91  75  59 NE12      29.89F HX 102
MINATITLAN     PTSUNNY   82  68  61 N12       29.86F
TAPACHULA      MOSUNNY   90  79  70 SW10      29.81S HX 105
TUX. GUTIERREZ MOSUNNY   88  66  48 NW12      29.87F HX  90
VILLAHERMOSA   PTSUNNY   91  73  55 NE13      29.88F HX 100

CENTRAL AMERICA

CITY           SKY/WX    TMP DP  RH WIND       PRES   REMARKS
BELIZE CITY    MOSUNNY   90  77  66 E9        29.87F HX 102
MANAGUA        PTCLDY    93  72  49 E18       29.71F HX 100

CARIBBEAN

CITY           SKY/WX    TMP DP  RH WIND       PRES   REMARKS
ARUBA          MOSUNNY   88  77  70 E26       29.77F HX 100
KINGSTON       MOSUNNY   90  77  66 SE24      29.86S HX 102
NASSAU         PTSUNNY   88  79  74 SE18      29.98S HX 102
SAN JUAN       MOSUNNY   88  75  66 E15       29.98S HX  97
SANTO DOMINGO  PTSUNNY   81  73  78 VRB3      29.94S
ST. CROIX      MOSUNNY   86  73  66 E15G24    29.96  HX  93
ST. KITTS      MOSUNNY   84  77  79 E13       29.97S HX  94
ST. MAARTEN    MOSUNNY   86  75  70 E17       29.97S HX  95
ST. THOMAS     SUNNY     90  72  55 E15G25    29.97  HX  96

$$



USA.gov is the U.S. government's official web portal to all federal, state and local government web resources and services.